{"data":{"norad_id":49079,"intl_designator":"2021-075E","name":"ONEWEB-0289","alt_names":[],"object_type":"PAYLOAD","status":"ACTIVE","operator":null,"country":"UK","launch_date":"2021-08-21","launch_site_code":"TYMSC","launch_vehicle":null,"mission":null,"orbit_class":"UNKNOWN","rcs_meters":null,"size_class":null,"mass_kg":null,"dimensions":null,"purposes":["comms"],"wikipedia_slug":null,"has_3d_model":false,"image_url":null,"decayed_at":null,"tle_current":{"epoch":"2026-09-20T01:11:37.178304Z","epoch_age_seconds":60833,"freshness":"FRESH","line1":"1 49079U 21075E   26263.04973586  .00000035  00000+0  57869-4 0  9991","line2":"2 49079  87.9191 347.0444 0001455  98.7920 261.3376 13.17650137246691","mean_motion":13.17650137,"eccentricity":0.0001455,"inclination_deg":87.9191,"raan_deg":347.0444,"arg_perigee_deg":98.792,"mean_anomaly_deg":261.3376,"bstar":5.7869e-5,"rev_number":24669,"period_min":109.2854589822,"perigee_km":1192.6072004521,"apogee_km":1194.8106076102,"semimajor_km":7571.8459040312,"source":"CELESTRAK","updated_at":"2026-09-20T09:00:44.631497Z"}}}